Tracking 19651 objects as of 23-Apr-2019
HD Live streaming from Space Station
objects crossing your sky now

THORAD AGENA D DEB

Track THORAD AGENA D DEB now!
10-day predictions


NORAD ID: 5957
Int'l Code: 1970-025MN
Perigee: 788.9 km
Apogee: 835.3 km
Inclination: 99.6 °
Period: 101.0 minutes
Semi major axis: 7183 km
RCS: 0.0082 m2 (small)
Launch date: April 8, 1970
Source: United States (US)
Launch site: AIR FORCE WESTERN TEST RANGE (AFWTR)

Note: This is SATELLITE DEBRIS
aabbcc
Your satellite tracking list
Your tracking list is empty




NASA's NSSDC Master Catalog

Two Line Element Set (TLE):
1  5957U 70025MN  19113.35411094  .00001170  00000-0  50920-3 0  9990
2  5957  99.6402 249.9367 0032237 346.5662  13.4653 14.26049662796753
Source of the keplerian elements: AFSPC